#timestamp,LO_Frequency,Hit,StdDev 
1508619615.2,286047001.2,N
1508619635.0,286047000.8,N
1508619635.9,286047000.8,N
1508619655.8,286047000.9,N
1508619675.6,286047000.9,N
1508619695.4,286047000.1,N
1508619715.3,286046999.7,N
1508619735.1,286047001.9,N
1508619755.9,286047000.2,N
1508619775.7,286046999.7,N
1508619795.5,286047000.4,N
1508619815.4,286047000.4,N
1508619835.2,286047000.1,N
1508619855.0,286047001.0,N
1508619855.9,286047001.0,N
1508619875.8,286047000.5,N
1508619895.6,286047000.8,N
1508619915.5,286047000.5,N
1508619935.3,286047001.7,N
1508619955.1,286047002.7,N
1508619975.9,286047002.1,N
1508619995.7,286047001.8,N
1508620015.5,286046999.7,N
1508620035.4,286046999.8,N
1508620055.2,286047002.8,N
1508620075.1,286047000.9,N
1508620076.0,286047000.9,N
1508620095.8,286047000.9,N
1508620115.6,286046998.5,N
1508620135.5,286046998.1,N
1508620155.3,286046998.2,N
1508620175.1,286046998.2,N
1508620195.9,286046998.8,N
1508620215.7,286046996.8,N
1508620235.6,286046996.6,N
1508620255.4,286046998.4,N
1508620275.2,286046999.1,N
1508620295.1,286046999.1,N
1508620296.0,286046999.1,N
1508620315.8,286046996.9,N
1508620335.6,286046996.6,N
1508620355.5,286046997.2,N
1508620375.3,286046997.1,N
1508620395.2,286046999.4,N
1508620415.9,286046999.3,N
1508620435.7,286047000.8,N
1508620455.6,286046998.9,N
1508620475.4,286046998.3,N
1508620495.3,286046999.3,N
1508620515.1,286046997.3,N
1508620516.0,286046997.3,N
1508620535.8,286046999.4,N
1508620555.7,286046999.9,N
1508620575.5,286047001.1,N
1508620595.3,286046998.7,N
1508620615.2,286047001.2,N
1508620635.0,286047000.6,N
1508620635.9,286047000.6,N
1508620655.8,286046998.3,N
1508620675.6,286047000.7,N
1508620695.4,286046999.4,N
1508620715.3,286046998.3,N
1508620735.1,286046998.2,N
1508620755.8,286047000.3,N
1508620775.7,286047002.1,N
1508620795.5,286046999.7,N
1508620815.4,286046999.3,N
1508620835.2,286046996.6,N
1508620855.0,286046999.5,N
1508620855.9,286046999.5,N
1508620875.8,286047000.7,N
1508620895.6,286047001.0,N
1508620915.5,286046999.4,N
1508620935.3,286046998.7,N
1508620955.1,286046998.3,N
1508620975.9,286046998.6,N
1508620995.7,286046998.5,N
1508621015.5,286047001.2,N
1508621035.4,286046998.1,N
1508621055.2,286047000.4,N
1508621075.1,286047000.1,N
1508621076.0,286047000.1,N
1508621095.8,286046999.8,N
1508621115.6,286047002.2,N
1508621135.5,286047002.5,N
1508621155.3,286047002.5,N
1508621175.1,286047002.0,N
1508621195.9,286047004.1,N
1508621215.7,286047004.2,N
1508621235.6,286047001.8,N
1508621255.4,286047003.7,N
1508621275.2,286047003.2,N
1508621295.1,286047001.7,N
1508621296.0,286047001.7,N
1508621315.8,286047002.1,N
1508621335.6,286046999.7,N
1508621355.5,286046999.8,N
1508621375.3,286047002.8,N
1508621395.2,286047002.4,N
1508621415.9,286047000.1,N
1508621435.7,286046998.2,N
1508621455.6,286047001.2,N
1508621475.4,286046999.8,N
1508621495.2,286047000.6,N
1508621515.1,286047000.5,N
1508621516.0,286047000.5,N
1508621535.8,286047000.7,N
1508621555.7,286047000.6,N
1508621575.5,286046998.1,N
1508621595.3,286046999.8,N
1508621615.2,286047000.1,N
1508621635.0,286047002.6,N
1508621635.9,286047002.6,N
1508621655.8,286047002.2,N
1508621675.6,286047000.0,N
1508621695.4,286046998.3,N
1508621715.3,286046998.8,N
1508621735.1,286047001.0,N
1508621755.8,286047000.7,N
1508621775.7,286047001.2,N
1508621795.5,286046998.7,N
1508621815.4,286047001.1,N
1508621835.2,286047000.8,N
1508621855.0,286046999.4,N
1508621855.9,286046999.4,N
1508621875.8,286046998.8,N
1508621895.6,286046998.6,N
1508621915.4,286047000.2,N
1508621935.3,286047000.4,N
1508621955.1,286046998.4,N
1508621975.9,286046998.1,N
1508621995.7,286046998.6,N
1508622015.5,286046998.1,N
1508622035.4,286047000.9,N
1508622055.2,286046998.3,N
1508622075.0,286046998.5,N
1508622076.0,286046998.5,N
1508622095.8,286046998.1,N
1508622115.6,286047000.8,N
1508622135.5,286047001.0,N
1508622155.3,286046998.3,N
1508622175.1,286046996.9,N
1508622195.9,286046999.3,N
1508622215.7,286046998.1,N
1508622235.6,286047000.3,N
1508622255.4,286046998.7,N
1508622275.2,286047000.5,N
1508622295.1,286047002.5,N
1508622296.0,286047002.5,N
1508622315.8,286047002.4,N
1508622335.6,286046999.7,N
1508622355.5,286047001.8,N
1508622375.3,286047000.1,N
1508622395.2,286047002.1,N
1508622415.9,286047003.6,N
1508622435.7,286047001.7,N
1508622455.6,286047001.4,N
1508622475.4,286047004.1,N
1508622495.2,286047004.3,N
1508622515.1,286047001.9,N
1508622516.0,286047001.9,N
1508622535.8,286047000.3,N
1508622555.7,286047000.5,N
1508622575.5,286047003.5,N
1508622595.3,286047001.7,N
1508622615.2,286047002.4,N
1508622635.0,286047002.5,N
1508622635.9,286047002.5,N
1508622655.7,286047000.5,N
1508622675.6,286047000.8,N
1508622695.4,286046998.5,N
1508622715.3,286046999.1,N
1508622735.1,286046998.7,N
1508622736.0,286046998.7,N
1508622755.8,286046998.8,N
1508622775.7,286047000.8,N
1508622795.5,286047002.8,N
1508622815.3,286047000.8,N
1508622835.2,286047000.0,N
1508622855.0,286046999.7,N
1508622855.9,286046999.7,N
1508622875.8,286047002.5,N
1508622895.6,286047002.1,N
1508622915.4,286047001.8,N
1508622935.3,286047002.2,N
1508622955.1,286047001.4,N
1508622975.9,286047004.3,N
1508622995.7,286047004.2,N
1508623015.5,286047004.4,N
1508623035.4,286047001.5,N
1508623055.2,286047000.2,N
1508623075.0,286047001.9,N
1508623075.9,286047001.9,N
1508623095.8,286047001.4,N
1508623115.6,286047004.3,N
1508623135.5,286047004.3,N
1508623155.3,286047002.3,N
1508623175.1,286047004.3,N
1508623195.9,286047002.9,N
